EJU17CN LFPG-HESH

Flight info

Callsign EJU17CN
Flight time N/A
Altitude 34000
Route LANVI DCT LUPEN DCT BATUB DCT MOMUK DCT GEDSO DCT VEKEN DCT DARZA DCT GLOMY DCT PETAK DCT DIMIS DCT IPTES UL604 SALUN N705 BOPIX N710 TAKRI M720 FYM M872 SEMRU W727 DEDEV DEDEV1G
Aircraft A320/M-SDE2E3FGHIJ1RWXYZ/LB1

Departure

Time 2026-04-30 12:19
Airport Charles de Gaulle International Airport (LFPG)

Arrival

Time N/A
Airport Sharm El Sheikh International Airport (HESH)
Time Latitude Longitude Altitude Speed Heading
2026-04-30 11:46 49.00525 2.56183 354 ft 0 kts 166°
2026-04-30 12:05 49.00534 2.56180 353 ft 4 kts 168°
2026-04-30 12:05 49.00561 2.56174 353 ft 4 kts 181°
2026-04-30 12:05 49.00586 2.56181 358 ft 4 kts 218°
2026-04-30 12:05 49.00595 2.56201 356 ft 1 kts 265°
2026-04-30 12:06 49.00595 2.56207 357 ft 0 kts 265°
2026-04-30 12:07 49.00595 2.56206 357 ft 1 kts 265°
2026-04-30 12:07 49.00592 2.56159 353 ft 8 kts 264°
2026-04-30 12:08 49.00580 2.56056 353 ft 11 kts 255°
2026-04-30 12:08 49.00568 2.55949 355 ft 9 kts 274°
2026-04-30 12:08 49.00568 2.55856 362 ft 8 kts 268°
2026-04-30 12:08 49.00564 2.55774 363 ft 9 kts 265°
2026-04-30 12:09 49.00559 2.55674 358 ft 9 kts 265°
2026-04-30 12:09 49.00554 2.55584 357 ft 10 kts 266°
2026-04-30 12:09 49.00547 2.55443 360 ft 15 kts 265°
2026-04-30 12:09 49.00568 2.55303 357 ft 15 kts 308°
2026-04-30 12:10 49.00677 2.55229 361 ft 18 kts 343°
2026-04-30 12:10 49.00791 2.55176 354 ft 16 kts 343°
2026-04-30 12:10 49.00894 2.55129 356 ft 15 kts 343°
2026-04-30 12:10 49.00987 2.55088 360 ft 13 kts 344°
2026-04-30 12:11 49.01069 2.55053 363 ft 13 kts 345°
2026-04-30 12:11 49.01157 2.55019 364 ft 15 kts 343°
2026-04-30 12:11 49.01277 2.54968 357 ft 19 kts 345°
2026-04-30 12:11 49.01400 2.54922 354 ft 18 kts 347°
2026-04-30 12:12 49.01517 2.54906 361 ft 16 kts 357°
2026-04-30 12:12 49.01632 2.54891 357 ft 18 kts 355°
2026-04-30 12:12 49.01763 2.54865 360 ft 19 kts 354°
2026-04-30 12:12 49.01890 2.54846 361 ft 18 kts 345°
2026-04-30 12:13 49.01929 2.54701 361 ft 15 kts 264°
2026-04-30 12:13 49.01920 2.54539 354 ft 15 kts 266°
2026-04-30 12:13 49.01913 2.54383 358 ft 14 kts 266°
2026-04-30 12:13 49.01906 2.54245 357 ft 12 kts 265°
2026-04-30 12:14 49.01900 2.54124 359 ft 11 kts 265°
2026-04-30 12:14 49.01894 2.54018 360 ft 10 kts 265°
2026-04-30 12:14 49.01887 2.53887 363 ft 13 kts 265°
2026-04-30 12:14 49.01878 2.53719 358 ft 20 kts 265°
2026-04-30 12:15 49.01866 2.53515 359 ft 18 kts 265°
2026-04-30 12:15 49.01855 2.53334 360 ft 15 kts 265°
2026-04-30 12:15 49.01846 2.53183 356 ft 13 kts 265°
2026-04-30 12:15 49.01840 2.53018 356 ft 18 kts 266°
2026-04-30 12:16 49.01833 2.52828 360 ft 17 kts 274°
2026-04-30 12:16 49.01910 2.52746 355 ft 13 kts 353°
2026-04-30 12:16 49.01992 2.52732 361 ft 10 kts 355°
2026-04-30 12:16 49.02037 2.52726 355 ft 0 kts 355°
2026-04-30 12:17 49.02038 2.52726 358 ft 1 kts 355°
2026-04-30 12:17 49.02099 2.52726 360 ft 14 kts 12°
2026-04-30 12:17 49.02147 2.52862 359 ft 17 kts 84°
2026-04-30 12:18 49.02163 2.53165 363 ft 57 kts 85°
2026-04-30 12:18 49.02214 2.54104 354 ft 118 kts 85°
2026-04-30 12:18 49.02294 2.55605 358 ft 164 kts 85°
2026-04-30 12:18 49.02358 2.56787 644 ft 169 kts 85°
2026-04-30 12:19 49.02452 2.58563 1383 ft 168 kts 86°
2026-04-30 12:19 49.02547 2.60402 1822 ft 183 kts 86°
2026-04-30 12:19 49.02653 2.62444 2119 ft 201 kts 86°
2026-04-30 12:19 49.02770 2.64676 2528 ft 219 kts 86°
2026-04-30 12:20 49.02895 2.67078 2993 ft 236 kts 87°
2026-04-30 12:20 49.03025 2.69616 3689 ft 243 kts 87°
2026-04-30 12:20 49.03160 2.72205 4477 ft 248 kts 87°
2026-04-30 12:20 49.03293 2.74841 5243 ft 251 kts 88°
2026-04-30 12:21 49.03422 2.77523 5985 ft 256 kts 88°
2026-04-30 12:21 49.03552 2.80250 6737 ft 260 kts 88°
2026-04-30 12:21 49.03683 2.83024 7461 ft 265 kts 88°
2026-04-30 12:21 49.03817 2.85844 8193 ft 269 kts 88°
2026-04-30 12:22 49.03954 2.88701 8908 ft 273 kts 87°
2026-04-30 12:22 49.04093 2.91613 9613 ft 277 kts 88°
2026-04-30 12:22 49.04125 2.94559 10325 ft 280 kts 99°
2026-04-30 12:22 49.03704 2.97560 10564 ft 301 kts 104°
2026-04-30 12:23 49.03161 3.00753 10755 ft 321 kts 105°
2026-04-30 12:23 49.02566 3.04081 11279 ft 328 kts 105°
2026-04-30 12:23 49.01964 3.07463 11908 ft 333 kts 105°
2026-04-30 12:23 49.01363 3.10895 12546 ft 337 kts 105°
2026-04-30 12:24 49.00766 3.14356 13185 ft 340 kts 105°
2026-04-30 12:24 49.00170 3.17848 13818 ft 342 kts 104°
2026-04-30 12:24 48.99577 3.21320 14405 ft 345 kts 104°
2026-04-30 12:24 48.98972 3.24868 14991 ft 347 kts 104°
2026-04-30 12:25 48.98354 3.28492 15581 ft 350 kts 104°
2026-04-30 12:25 48.97749 3.32037 16150 ft 352 kts 104°
2026-04-30 12:25 48.97129 3.35659 16724 ft 355 kts 104°
2026-04-30 12:25 48.96505 3.39307 17239 ft 358 kts 104°
2026-04-30 12:26 48.95876 3.42980 17767 ft 360 kts 104°
2026-04-30 12:26 48.95238 3.46674 18281 ft 362 kts 104°
2026-04-30 12:26 48.94594 3.50384 18777 ft 365 kts 104°
2026-04-30 12:26 48.93959 3.54131 19272 ft 367 kts 101°
2026-04-30 12:27 48.93636 3.57986 19731 ft 369 kts 94°
2026-04-30 12:27 48.93437 3.61885 20199 ft 371 kts 94°
2026-04-30 12:27 48.93236 3.65811 20647 ft 373 kts 94°
2026-04-30 12:27 48.93032 3.69751 21105 ft 375 kts 94°
2026-04-30 12:28 48.92824 3.73719 21542 ft 377 kts 94°
2026-04-30 12:28 48.92613 3.77693 21987 ft 379 kts 94°
2026-04-30 12:28 48.92396 3.81691 22404 ft 380 kts 94°
2026-04-30 12:28 48.92174 3.85707 22802 ft 382 kts 94°
2026-04-30 12:29 48.91950 3.89746 23189 ft 384 kts 94°
2026-04-30 12:29 48.91725 3.93793 23571 ft 385 kts 94°
2026-04-30 12:29 48.91498 3.97865 23950 ft 387 kts 94°
2026-04-30 12:29 48.91270 4.01958 24319 ft 389 kts 94°
2026-04-30 12:30 48.91040 4.06066 24654 ft 392 kts 94°
2026-04-30 12:30 48.90805 4.10208 24988 ft 394 kts 94°
2026-04-30 12:30 48.90567 4.14370 25314 ft 396 kts 94°
2026-04-30 12:30 48.90312 4.18548 25615 ft 399 kts 97°
2026-04-30 12:31 48.89725 4.22680 25927 ft 402 kts 106°
2026-04-30 12:31 48.88660 4.26617 26236 ft 406 kts 116°
2026-04-30 12:31 48.87287 4.30383 26545 ft 408 kts 117°
2026-04-30 12:31 48.85900 4.34157 26852 ft 410 kts 117°
2026-04-30 12:32 48.84510 4.37937 27152 ft 411 kts 117°
2026-04-30 12:32 48.83116 4.41745 27429 ft 413 kts 117°
2026-04-30 12:32 48.81717 4.45566 27704 ft 415 kts 117°
2026-04-30 12:32 48.80315 4.49394 27981 ft 417 kts 117°
2026-04-30 12:33 48.78903 4.53244 28263 ft 418 kts 117°
2026-04-30 12:33 48.77482 4.57104 28540 ft 420 kts 117°
2026-04-30 12:33 48.76054 4.60973 28804 ft 421 kts 117°
2026-04-30 12:33 48.74616 4.64855 29065 ft 423 kts 117°
2026-04-30 12:34 48.73192 4.68700 29288 ft 425 kts 117°
2026-04-30 12:34 48.71741 4.72609 29520 ft 426 kts 117°
2026-04-30 12:34 48.70281 4.76528 29755 ft 428 kts 118°
2026-04-30 12:34 48.68820 4.80450 29964 ft 429 kts 117°
2026-04-30 12:35 48.67354 4.84392 30180 ft 430 kts 117°
2026-04-30 12:35 48.65884 4.88346 30395 ft 432 kts 118°
2026-04-30 12:35 48.64409 4.92300 30666 ft 431 kts 117°
2026-04-30 12:35 48.62933 4.96240 30969 ft 430 kts 118°
2026-04-30 12:36 48.61458 5.00172 31263 ft 429 kts 118°
2026-04-30 12:36 48.59985 5.04094 31551 ft 429 kts 117°
2026-04-30 12:36 48.58518 5.07996 31846 ft 428 kts 117°
2026-04-30 12:36 48.57050 5.11898 32130 ft 427 kts 117°
2026-04-30 12:37 48.55578 5.15790 32400 ft 426 kts 117°
2026-04-30 12:37 48.54110 5.19672 32663 ft 426 kts 117°
2026-04-30 12:37 48.52645 5.23552 32933 ft 425 kts 117°
2026-04-30 12:37 48.51180 5.27420 33197 ft 424 kts 117°
2026-04-30 12:38 48.49718 5.31273 33448 ft 424 kts 117°
2026-04-30 12:38 48.48253 5.35129 33698 ft 423 kts 117°
2026-04-30 12:38 48.46788 5.38978 33952 ft 423 kts 117°
2026-04-30 12:38 48.45324 5.42826 34133 ft 423 kts 117°
2026-04-30 12:39 48.42423 5.50450 34184 ft 417 kts 117°
2026-04-30 12:39 48.39525 5.58016 34200 ft 417 kts 117°
2026-04-30 12:40 48.36641 5.65517 34215 ft 417 kts 117°
2026-04-30 12:40 48.33731 5.73076 34214 ft 417 kts 115°
2026-04-30 12:41 48.31870 5.81232 34207 ft 412 kts 96°
2026-04-30 12:41 48.31883 5.89767 34198 ft 409 kts 83°
2026-04-30 12:42 48.32498 5.98273 34202 ft 410 kts 83°
2026-04-30 12:42 48.33097 6.06797 34202 ft 410 kts 83°
2026-04-30 12:43 48.33690 6.15335 34222 ft 411 kts 83°
2026-04-30 12:43 48.34272 6.23867 34212 ft 410 kts 83°
2026-04-30 12:44 48.34851 6.32393 34222 ft 410 kts 83°
2026-04-30 12:44 48.35428 6.40929 34231 ft 410 kts 83°
2026-04-30 12:45 48.35996 6.49461 34226 ft 410 kts 83°
2026-04-30 12:45 48.36557 6.57993 34235 ft 410 kts 83°
2026-04-30 12:46 48.37113 6.66510 34242 ft 409 kts 83°
2026-04-30 12:46 48.37661 6.75027 34245 ft 409 kts 83°
2026-04-30 12:47 48.38199 6.83529 34249 ft 408 kts 83°
2026-04-30 12:47 48.38729 6.92028 34253 ft 407 kts 83°
2026-04-30 12:48 48.39255 7.00502 34257 ft 407 kts 83°
2026-04-30 12:48 48.39773 7.08963 34255 ft 406 kts 83°
2026-04-30 12:49 48.40288 7.17426 34255 ft 406 kts 83°
2026-04-30 12:49 48.40795 7.25870 34258 ft 405 kts 83°
2026-04-30 12:50 48.41294 7.34321 34259 ft 405 kts 82°
2026-04-30 12:50 48.41783 7.42755 34262 ft 404 kts 82°
2026-04-30 12:51 48.42266 7.51184 34266 ft 404 kts 82°
2026-04-30 12:51 48.42743 7.59613 34271 ft 404 kts 82°
2026-04-30 12:52 48.43211 7.68032 34273 ft 404 kts 83°
2026-04-30 12:52 48.42791 7.76483 34275 ft 411 kts 101°
2026-04-30 12:53 48.41022 7.84707 34274 ft 413 kts 104°
2026-04-30 12:53 48.39224 7.92907 34272 ft 413 kts 104°
2026-04-30 12:54 48.37423 8.01115 34276 ft 413 kts 104°
2026-04-30 12:54 48.35623 8.09318 34274 ft 413 kts 104°
2026-04-30 12:55 48.33812 8.17501 34272 ft 413 kts 104°
2026-04-30 12:55 48.31991 8.25675 34271 ft 412 kts 104°
2026-04-30 12:56 48.30176 8.33777 34268 ft 411 kts 104°
2026-04-30 12:56 48.28342 8.41919 34264 ft 412 kts 104°
2026-04-30 12:57 48.26505 8.50064 34264 ft 412 kts 104°
2026-04-30 12:57 48.24664 8.58216 34271 ft 412 kts 104°
2026-04-30 12:58 48.22824 8.66364 34273 ft 412 kts 104°
2026-04-30 12:58 48.20973 8.74484 34273 ft 412 kts 104°
2026-04-30 12:59 48.19114 8.82608 34273 ft 412 kts 104°
2026-04-30 12:59 48.17252 8.90710 34274 ft 412 kts 104°
2026-04-30 13:00 48.15387 8.98817 34276 ft 412 kts 103°
2026-04-30 13:00 48.13510 9.06915 34282 ft 411 kts 103°
2026-04-30 13:01 48.11633 9.15012 34285 ft 411 kts 103°
2026-04-30 13:01 48.09760 9.23082 34286 ft 411 kts 103°
2026-04-30 13:02 48.07868 9.31150 34286 ft 411 kts 103°
2026-04-30 13:02 48.05971 9.39207 34289 ft 410 kts 103°
2026-04-30 13:03 48.04068 9.47245 34292 ft 410 kts 103°
2026-04-30 13:03 48.02133 9.55258 34294 ft 412 kts 107°
2026-04-30 13:04 47.99276 9.62791 34292 ft 419 kts 115°
2026-04-30 13:04 47.96205 9.70189 34287 ft 420 kts 115°
2026-04-30 13:05 47.93143 9.77531 34291 ft 420 kts 115°
2026-04-30 13:06 47.88505 9.88614 34294 ft 420 kts 115°
2026-04-30 13:06 47.85417 9.95992 34293 ft 419 kts 115°
2026-04-30 13:07 47.82838 10.02164 34298 ft 419 kts 114°
2026-04-30 13:07 47.79899 10.09612 34296 ft 417 kts 113°
2026-04-30 13:08 47.77035 10.17042 34285 ft 417 kts 113°
2026-04-30 13:08 47.74129 10.24510 34284 ft 418 kts 113°
2026-04-30 13:09 47.71187 10.31951 34283 ft 418 kts 114°
2026-04-30 13:09 47.68227 10.39392 34283 ft 419 kts 114°
2026-04-30 13:10 47.65269 10.46832 34284 ft 419 kts 114°
2026-04-30 13:10 47.62308 10.54287 34281 ft 420 kts 114°
2026-04-30 13:11 47.59328 10.61754 34280 ft 421 kts 114°
2026-04-30 13:11 47.56332 10.69225 34281 ft 422 kts 114°
2026-04-30 13:12 47.53323 10.76711 34285 ft 424 kts 114°
2026-04-30 13:12 47.50307 10.84202 34283 ft 424 kts 114°
2026-04-30 13:13 47.45773 10.95434 34277 ft 425 kts 114°
2026-04-30 13:14 47.41229 11.06625 34269 ft 425 kts 114°
2026-04-30 13:14 47.36655 11.17856 34260 ft 426 kts 114°
2026-04-30 13:15 47.32057 11.29106 34249 ft 427 kts 115°
2026-04-30 13:16 47.28981 11.36593 34243 ft 427 kts 115°
2026-04-30 13:16 47.25899 11.44081 34237 ft 427 kts 115°
2026-04-30 13:17 47.21268 11.55286 34242 ft 428 kts 115°
2026-04-30 13:18 47.16626 11.66508 34228 ft 429 kts 115°
2026-04-30 13:18 47.11952 11.77716 34232 ft 429 kts 115°
2026-04-30 13:19 47.08823 11.85196 34234 ft 431 kts 115°
2026-04-30 13:19 47.06106 11.92876 34239 ft 426 kts 110°
2026-04-30 13:20 47.03510 12.00686 34239 ft 427 kts 110°
2026-04-30 13:20 47.00887 12.08512 34244 ft 429 kts 110°
2026-04-30 13:21 46.98248 12.16349 34247 ft 430 kts 110°
2026-04-30 13:22 46.94267 12.28155 34249 ft 432 kts 111°
2026-04-30 13:22 46.90264 12.40005 34255 ft 434 kts 111°
2026-04-30 13:23 46.86216 12.51871 34250 ft 435 kts 111°
2026-04-30 13:24 46.80792 12.67702 34248 ft 436 kts 111°
2026-04-30 13:25 46.75346 12.83549 34253 ft 438 kts 112°
2026-04-30 13:26 46.68481 13.03338 34259 ft 440 kts 112°
2026-04-30 13:28 46.61548 13.23225 34260 ft 442 kts 112°
2026-04-30 13:28 46.57331 13.35178 34258 ft 444 kts 116°
2026-04-30 13:29 46.53560 13.42362 34264 ft 451 kts 130°
2026-04-30 13:29 46.49273 13.49034 34265 ft 452 kts 130°
2026-04-30 13:31 46.38538 13.65803 34275 ft 455 kts 131°
2026-04-30 13:32 46.27714 13.82543 34282 ft 457 kts 131°
2026-04-30 13:33 46.19035 13.95910 34291 ft 458 kts 131°
2026-04-30 13:34 46.12481 14.05965 34297 ft 459 kts 132°
2026-04-30 13:35 46.03723 14.19343 34299 ft 459 kts 132°
2026-04-30 13:36 45.94934 14.32698 34307 ft 460 kts 132°
2026-04-30 13:36 45.88330 14.42713 34302 ft 461 kts 132°
2026-04-30 13:37 45.81698 14.52703 34303 ft 461 kts 133°
2026-04-30 13:38 45.75072 14.62642 34318 ft 462 kts 133°
2026-04-30 13:39 45.66170 14.75961 34310 ft 464 kts 133°
2026-04-30 13:40 45.59470 14.85954 34312 ft 464 kts 133°
2026-04-30 13:40 45.54989 14.92596 34297 ft 465 kts 134°
2026-04-30 13:41 45.50494 14.99243 34312 ft 466 kts 134°
2026-04-30 13:41 45.45977 15.05849 34310 ft 466 kts 134°
2026-04-30 13:42 45.41403 15.12401 34314 ft 467 kts 135°
2026-04-30 13:42 45.34528 15.22216 34312 ft 467 kts 135°
2026-04-30 13:43 45.29948 15.28758 34310 ft 467 kts 135°
2026-04-30 13:43 45.25373 15.35295 34297 ft 467 kts 135°
2026-04-30 13:44 45.20794 15.41823 34313 ft 467 kts 135°
2026-04-30 13:44 45.16199 15.48358 34302 ft 468 kts 135°
2026-04-30 13:45 45.09279 15.58123 34312 ft 468 kts 135°
2026-04-30 13:46 45.04690 15.64576 34312 ft 469 kts 135°
2026-04-30 13:46 45.00069 15.71084 34313 ft 469 kts 135°
2026-04-30 13:47 44.95439 15.77592 34310 ft 470 kts 136°
2026-04-30 13:47 44.90794 15.84102 34293 ft 471 kts 136°
2026-04-30 13:48 44.86142 15.90612 34289 ft 472 kts 136°
2026-04-30 13:48 44.81467 15.97115 34283 ft 472 kts 136°
2026-04-30 13:49 44.76783 16.03612 34276 ft 473 kts 136°
2026-04-30 13:49 44.72093 16.10120 34269 ft 474 kts 136°
2026-04-30 13:50 44.67395 16.16626 34268 ft 474 kts 136°
2026-04-30 13:50 44.60339 16.26369 34267 ft 475 kts 137°
2026-04-30 13:51 44.55619 16.32851 34267 ft 475 kts 137°
2026-04-30 13:51 44.50894 16.39343 34272 ft 476 kts 137°
2026-04-30 13:52 44.46155 16.45828 34274 ft 476 kts 137°
2026-04-30 13:52 44.41412 16.52295 34273 ft 476 kts 137°
2026-04-30 13:53 44.36696 16.58717 34272 ft 476 kts 137°
2026-04-30 13:53 44.32720 16.64124 34271 ft 476 kts 137°
2026-04-30 13:54 44.27196 16.71618 34269 ft 477 kts 137°
2026-04-30 13:54 44.22429 16.78047 34266 ft 477 kts 137°
2026-04-30 13:55 44.17672 16.84474 34267 ft 477 kts 137°
2026-04-30 13:55 44.12911 16.90897 34259 ft 477 kts 137°
2026-04-30 13:56 44.08138 16.97316 34261 ft 477 kts 137°
2026-04-30 13:56 44.03359 17.03717 34258 ft 477 kts 138°
2026-04-30 13:57 43.98588 17.10097 34249 ft 476 kts 138°
2026-04-30 13:57 43.93814 17.16482 34230 ft 477 kts 139°
2026-04-30 13:58 43.87433 17.24944 34228 ft 477 kts 139°
2026-04-30 13:59 43.82634 17.31294 34217 ft 477 kts 139°
2026-04-30 13:59 43.77828 17.37648 34223 ft 478 kts 139°
2026-04-30 14:00 43.73025 17.43999 34220 ft 478 kts 139°
2026-04-30 14:00 43.65803 17.53504 34233 ft 477 kts 139°
2026-04-30 14:01 43.60987 17.59821 34230 ft 477 kts 139°
2026-04-30 14:01 43.56154 17.66064 34210 ft 474 kts 144°
2026-04-30 14:02 43.50809 17.71321 34186 ft 471 kts 149°
2026-04-30 14:02 43.45455 17.76429 34178 ft 471 kts 149°
2026-04-30 14:03 43.40063 17.81578 34172 ft 472 kts 149°
2026-04-30 14:03 43.34667 17.86706 34166 ft 472 kts 149°
2026-04-30 14:04 43.29264 17.91824 34158 ft 472 kts 149°
2026-04-30 14:04 43.23853 17.96957 34153 ft 472 kts 149°
2026-04-30 14:05 43.18449 18.02081 34148 ft 473 kts 150°
2026-04-30 14:05 43.13026 18.07187 34154 ft 473 kts 150°
2026-04-30 14:06 43.04892 18.14819 34142 ft 473 kts 151°
2026-04-30 14:07 42.96752 18.22449 34131 ft 473 kts 151°
2026-04-30 14:08 42.88596 18.30054 34120 ft 474 kts 152°
2026-04-30 14:08 42.80426 18.37661 34110 ft 474 kts 152°
2026-04-30 14:09 42.74979 18.42723 34104 ft 474 kts 152°
2026-04-30 14:10 42.66793 18.50310 34102 ft 475 kts 152°
2026-04-30 14:10 42.61331 18.55350 34098 ft 475 kts 152°
2026-04-30 14:11 42.55897 18.60351 34096 ft 475 kts 152°
2026-04-30 14:11 42.50423 18.65370 34097 ft 475 kts 153°
2026-04-30 14:12 42.44950 18.70385 34097 ft 475 kts 153°
2026-04-30 14:12 42.39482 18.75394 34092 ft 475 kts 152°
2026-04-30 14:13 42.34007 18.80411 34090 ft 476 kts 153°
2026-04-30 14:13 42.28528 18.85413 34096 ft 475 kts 153°
2026-04-30 14:14 42.23045 18.90402 34100 ft 475 kts 153°
2026-04-30 14:14 42.17563 18.95373 34106 ft 475 kts 153°
2026-04-30 14:15 42.12072 19.00330 34114 ft 475 kts 153°